Overview Statistics Trail Chart Weather Telemetry Raw packets
 

This is the latest recevied weather packets stored in our database for station/object KN4AN. If no packets are shown the sender has not sent any weather packets the latest 10 day(s).

<< 103 104 105 106 107 108 109 >>
Time Temp. Humidity Pressure Rain* Wind** Luminosity Snow
1787785104 27.22° C 64% 1015.8 hPa 0 mm - 28 W/m² -
1787784800 27.78° C 59% 1015.9 hPa 0 mm - 26 W/m² -
1787784500 28.33° C 59% 1015.9 hPa 0 mm - 25 W/m² -
1787784196 28.33° C 57% 1015.9 hPa 0 mm - 30 W/m² -
1787783889 28.33° C 57% 1015.6 hPa 0 mm - 34 W/m² -
1787783586 28.89° C 56% 1016.1 hPa 0 mm - 44 W/m² -
1787783285 29.44° C 56% 1015.8 hPa 0 mm - 49 W/m² -
1787782981 29.44° C 54% 1015.7 hPa 0 mm - 61 W/m² -
1787782679 30° C 52% 1016.1 hPa 0 mm - 81 W/m² -
1787782375 30.56° C 53% 1015.8 hPa 0 mm - 154 W/m² -
1787782071 30° C 52% 1015.9 hPa 0 mm - 167 W/m² -
1787781766 29.44° C 54% 1016.1 hPa 0 mm - 152 W/m² -
1787781463 30° C 53% 1015.9 hPa 0 mm - 116 W/m² -
1787781163 30° C 53% 1016.2 hPa 0 mm - 99 W/m² -
1787780862 30° C 54% 1015.9 hPa 0 mm - 118 W/m² -
1787780562 30° C 52% 1016.2 hPa 0 mm - 139 W/m² -
1787780257 30.56° C 53% 1016.1 hPa 0 mm - 135 W/m² -
1787779953 30.56° C 52% 1016.2 hPa 0 mm - 163 W/m² -
1787779648 30.56° C 51% 1016.1 hPa 0 mm - 179 W/m² -
1787779347 30.56° C 50% 1016.3 hPa 0 mm - 185 W/m² -
1787779042 30.56° C 51% 1016.4 hPa 0 mm - 233 W/m² -
1787778737 30.56° C 52% 1016.1 hPa 0 mm - 252 W/m² -
1787778433 30.56° C 53% 1016.3 hPa 0 mm - 271 W/m² -
1787778129 30.56° C 52% 1016.6 hPa 0 mm - 258 W/m² -
1787777828 31.11° C 51% 1016.6 hPa 0 mm - 291 W/m² -

* Rain latest hour (hover to see other rain measurements)
** Current wind speed in m/s (hover to see current wind gust speed)